Regional Weather Roundup
Issued by NWS

Home | Current Version | Previous Version | Text Only | Print | Product List | Glossary On
Versions: 1 2 3 4 5 6 7 8 9 10 11 12 13 14 15 16 17 18 19 20 21 22 23 24 25 26 27 28 29 30 31 32 33 34 35 36 37 38 39 40 41 42 43 44 45 46 47 48 49 50
000
ASUS43 KLSX 201507
RWRMO

WEATHER SUMMARY FOR MISSOURI
NATIONAL WEATHER SERVICE SPRINGFIELD MO
900 AM CST TUE FEB 20 2018

NOTE: "FAIR" INDICATES FEW OR NO CLOUDS BELOW 12,000 FEET WITH NO
       SIGNIFICANT WEATHER AND/OR OBSTRUCTIONS TO VISIBILITY.
       CURRENT SKY AND/OR WEATHER CONDITIONS ARE NOT AVAILABLE FOR
       CHILLICOTHE AND FARMINGTON.

MOZ001>031-035>038-043-044-053-054-201600-
...NORTHERN AND WESTERN MISSOURI...

CITY           SKY/WX    TMP DP  RH WIND       PRES   REMARKS
KANSAS CTY INT SLEET     30  28  92 NW15G23   29.96R FOG     WCI  19
KANSAS C DTWN  FRZ RAIN  32  27  81 NE9       29.89F WCI  24
LEE`S SUMMIT   FRZ RAIN  30  30 100 N13       29.90F FOG     WCI  20
ST JOSEPH      CLOUDY    28  27  96 NW21      29.99R FOG     WCI  15
CHILLICOTHE      N/A     32  29  88 NW5G17    29.97R WCI  27
KIRKSVILLE     TSTM      33  33 100 NW9       29.90R FOG     WCI  25

$$
MOZ066>068-077>081-088>096-101>105-201600-
...SOUTHWEST MISSOURI...

CITY           SKY/WX    TMP DP  RH WIND       PRES   REMARKS
SPRINGFIELD    PTSUNNY   65  63  93 S20       29.86S
JOPLIN         CLOUDY    40  39  97 NW26G41   29.91R WCI  29
BRANSON        LGT RAIN  64  63  94 S8        29.95R

$$
MOZ032>034-039>042-045>050-055>058-069>072-201600-
...CENTRAL MISSOURI...

CITY           SKY/WX    TMP DP  RH WIND       PRES   REMARKS
COLUMBIA       LGT RAIN  65  63  93 S14       29.83R
JEFFERSON CITY CLOUDY    69  60  73 S18G31    29.85R
ROLLA          PTSUNNY   65  60  84 S22G33    29.90S
SEDALIA        LGT RAIN  36  36 100 NW17      29.89R WCI  26
WHITEMAN AFB   RAIN      34  32  93 NW24G33   29.91R WCI  21
WARRENSBURG    MIX PCPN  32  32 100 NW20G26   29.98R WCI  20
OSAGE BEACH    CLOUDY    67  61  81 S13G18    29.86S

$$
MOZ051-052-059>065-201600-
...EAST CENTRAL MISSOURI...

CITY           SKY/WX    TMP DP  RH WIND       PRES   REMARKS
ST LOUIS INTL  LGT RAIN  66  61  84 S16G26    29.92R
SPIRIT OF STL  LGT RAIN  66  62  87 S14G23    29.92R
ST CHARLES     CLOUDY    67  60  78 S22G31    29.92R

$$
MOZ072>076-082>087-097>100-106>115-201600-
...SOUTH CENTRAL AND SOUTHEAST MISSOURI...

CITY           SKY/WX    TMP DP  RH WIND       PRES   REMARKS
CAPE GIRARDEAU PTSUNNY   67  60  78 S20G31    30.07R
FARMINGTON     LGT RAIN  64  62  93 S16       30.01R
POPLAR BLUFF   CLOUDY    68  63  84 S20G36    30.06R
WEST PLAINS    LGT RAIN  64  61  90 S15G31    29.99R

$$



USA.gov is the U.S. government's official web portal to all federal, state and local government web resources and services.